Showing default

FLOCK 4Q 30, 58286

Orbit data source: Space-Track

FLOCK 4Q 30, 58286 is a payload satellite owned by Planet (US) in SSO that was launched on Sat, 11 Nov 2023 UTC via an FALCON 9 launch vehicle from the Air Force Western Test Range (AFWTR). Payloads include a variety of satellites, spacecraft, and rockets equipped with specific instruments for various scientific and technological missions. These include communications satellites like Starlink; space stations such as the ISS; scientific satellites like the Hubble; Earth observation satellites from companies like Planet Labs, Umbra, and HawkEye 360; GPS; miniature CubeSats for education and research; and military/defense satellites.

Loading next visibility...
FLOCK 4Q 30 details
Identifier
58286, 2023-174AG
Orbit
SSO
Last TLE update13 hours ago
Origin
Flag of USPlanet (US)
ManufacturerPlanet
MissionOperational Commercial Imaging
Bus & MotorCUBESAT 3U, Unknown motor
Mass5.7 kg wet, 5.7 kg dry
Launch date (UTC)
2023-11-11 (1 year ago)
Launch vehicle
FALCON 9
Launch site
Air Force Western Test Range (AFWTR)
Object type
Payload
Rocket body
Debris
Shape & HBRBox + 2 Pan, 0.3 m
Radar Cross Section0.035 m², Medium (>0.1 m² and < 1m²)

Expand to show TLE details & history

TLE from 13 hours ago
0 FLOCK 4Q 30
1 58286U 23174AG  24356.15085921  .00018311  00000-0  67526-3 0  9990
2 58286  97.4421  69.7722 0008818 299.8826  60.1537 15.27812510 62181
Epoch: 2024-12-21T03:37Z
Definitive object data (Epoch: 2024-12-21T03:37:14.235Z)
Latitude-0.00001°
Longitude-74.74325°
Altitude482.445 km
Speed7.626 km/s
True Right ascension04h 39m 05s
True Declination0° 00' 00"
Sunlit
Object was in full shadow at TLE epoch
Visualization TLE readout
Latitude38.69299°
Longitude-80.18538°
Altitude488.96 km
Speed7.624 km/s
Apparent Right ascension03h 52m 03s
Apparent Declination1° 07' 37"
Sunlit
Object is in full shadow
Visualization observer readout
Local Sidereal Time15:24:21
Azimuth349.528° N
Elevation-48.471°
Doppler factor1
Orbital elements
Apogee altitude485.357 km
Perigee altitude473.263 km
Semi-major axis6,857.447 km
Eccentricity0.0008818
Inclination97.4421°
RAAN69.7722°
Arg. of periapsis299.8826°
True anomaly60.24139°
Mean anomaly60.1537°
Eccentric anomaly60.19754°
Mean motion3.82208 °/min
BSTAR0.00067526
Orbital period94.19 mins
Loading maneuver chart data...
Loading historical data...
Loading historical data...
Loading historical data...
Loading historical data...
Loading historical data...
Loading historical data...
Loading historical data...

FLOCK 4Q 30 Visibility forecast

Observer location: undefined°, undefined

Span
Click to sort rows by Start time (UTC) header in descending order
Start Az.
Max El. time (UTC)
Max El. Az.
Max El.
End time (UTC)
End Az.
5 mins2024-12-21 18:19:55.061Z355.265° N2024-12-21 18:21:55.061Z314.1° NW35.102°2024-12-21 18:24:55.061Z215.64° SW
5 mins2024-12-22 04:54:55.061Z142.727° SSE2024-12-22 04:56:55.061Z77.571° E37.991°2024-12-22 04:59:55.061Z0.578° NNE
|